Location: Fort Worth, Tx
(32.7431°N, 97.3695°W)
Time: 07:22:42
(UTC-04:00)

Vanguard 2 - Pass Details

Date: 27 February 2024
Orbit: 552 x 2916 km, 32.9° (Epoch: 24 April)

Event Time Altitude Azimuth Distance (km) Brightness Sun altitude
Rises 21:07:21 0° 259° (W) 4,303 12.7 -22.3°
Reaches altitude 10° 21:09:46 10° 259° (W) 3,584 12.0 -22.8°
Maximum altitude 21:19:38 88° 172° (S) 2,063 9.5 -24.9°
Enters shadow 21:27:04 37° 84° (E) 3,368 10.2 -26.4°
